Terug naar catalogus

STARLINK-11357

ActiefCommunicatieVLEO
NORAD 61541·PAYLOAD·🇺🇸 United States

Gelanceerd Oct 15, 2024 vanaf Vandenberg Space Force Base

Loading…

Volgende Passages (komende 24 uur)

TLE

VersSource: CelesTrak SupGP

Epoch: Sep 14, 2026, 20:54 UTC

1 61541C 24184K   26257.87131944  .00065497  00000+0  53944-3 0  2570
2 61541  53.1569  23.9778 0001033  75.7801  16.9612 15.69680416    11

Volg STARLINK-11357 in realtime met AllMySat

Download on the App Store